Temperature
18 18 18 18 18 18 18 18 18 18 18 18 18 18 18 18 18 18 18 18 18 18 18 18 18 18 18 18 18 18 18 18 18 18 18 18 18 18 18 18 18 18 18
18 18 18 18 18 18 18 18 18 18 18 18 18 18 18 18 18 18 18 18 18 18 18 18 18 18 18 18 18 18 18 18 18 18 18 18 18 18 18 18 18 18 18
18 18 18 18 18 18 18 18 18 18 18 18 17 17 17 17 17 17 17 17 17 17 17 17 17 17 17 17 18 18 18 18 18 18 18 18 18 18 18 18 18 18 18
18 18 18 18 18 18 18 18 18 17 17 17 17 17 17 17 17 17 17 17 17 17 17 17 17 17 17 17 17 17 17 17 17 17 18 18 18 18 18 18 18 18 18
18 18 18 18 18 18 18 17 17 17 17 17 17 17 17 17 17 17 17 17 17 17 17 17 17 17 17 17 17 17 17 17 17 17 17 18 18 18 18 18 18 18 18
18 18 18 18 18 18 17 17 17 17 17 17 16 16 16 16 16 16 17 16 16 16 17 17 17 17 17 17 17 17 17 17 17 17 17 17 17 17 18 18 18 18 18
17 17 17 17 17 17 17 17 17 17 16 16 16 16 16 16 16 16 16 16 16 16 16 17 17 16 17 17 17 17 17 17 17 17 17 17 17 17 17 17 18 18 18
17 17 17 17 17 17 17 17 17 16 16 16 16 16 16 16 16 16 16 16 16 16 16 16 16 16 16 17 17 17 17 17 17 17 17 17 17 17 17 17 17 17 18
17 17 17 17 17 17 17 17 16 16 16 16 16 16 16 16 16 16 16 16 16 16 16 16 16 16 16 16 16 16 17 17 17 17 17 17 17 17 17 17 17 17 17
17 17 17 17 17 17 17 16 16 16 16 16 16 16 16 16 16 16 16 16 16 16 16 16 16 16 16 16 16 16 16 17 17 16 17 17 17 17 17 17 17 17 17
17 17 17 17 17 17 16 16 16 16 16 16 16 16 16 16 16 16 16 16 16 16 16 16 16 16 16 16 16 16 16 16 16 16 16 16 16 17 17 17 17 17 17
17 17 17 17 17 16 16 16 16 16 16 16 16 16 16 16 16 16 16 16 16 16 16 16 16 16 16 16 16 16 16 16 16 16 16 16 16 16 17 17 17 17 17
17 17 17 17 17 17 16 16 16 16 16 16 16 16 16 16 16 16 16 16 16 16 16 16 16 16 16 16 16 16 16 16 16 16 16 16 16 16 16 17 17 17 17
17 17 17 17 17 16 16 16 16 16 16 16 16 16 16 16 16 16 16 16 15 15 16 16 16 16 16 16 16 16 16 16 16 16 16 16 16 16 16 16 16 16 16
17 17 17 17 16 16 16 16 16 16 16 16 16 16 16 16 16 16 16 15 15 15 15 15 15 16 16 16 16 16 16 16 16 16 16 16 16 16 16 16 16 16 16
17 17 17 17 16 16 16 16 16 16 16 16 16 16 16 16 16 16 15 15 15 15 15 15 15 15 15 16 16 16 16 16 16 16 16 16 16 16 16 16 16 16 16
17 17 17 16 16 16 16 16 16 16 16 16 16 16 16 16 16 16 15 15 15 15 15 15 15 15 15 15 15 16 16 16 16 16 16 16 16 16 16 16 16 16 16
17 17 17 16 16 16 16 16 16 16 16 16 16 16 16 16 16 15 15 15 15 15 15 15 15 15 15 15 15 15 15 15 15 15 15 15 15 15 16 16 16 16 16
17 17 17 16 16 16 16 16 16 16 16 16 16 16 16 16 15 15 15 15 15 15 15 15 15 15 15 15 15 15 15 15 15 15 15 15 15 15 15 15 15 15 15
17 17 17 17 16 16 16 16 16 16 16 16 16 16 16 15 15 15 15 15 15 15 15 15 15 15 15 15 15 15 15 15 15 15 15 15 15 15 15 15 15 15 15
17 17 17 17 16 16 16 16 16 16 16 16 16 15 15 15 15 15 15 15 15 15 15 15 15 15 15 15 15 15 15 15 15 15 15 15 15 15 15 15 15 15 15
17 17 17 17 16 16 16 16 16 16 15 15 15 15 15 15 15 15 15 15 15 15 15 15 15 15 15 15 15 15 15 15 15 15 15 15 15 15 15 15 15 15 15
17 17 17 17 16 16 16 16 16 16 15 15 15 15 15 15 15 15 15 15 15 15 15 15 15 15 15 15 15 15 15 14 14 14 14 14 14 14 14 14 14 15 15
18 17 17 17 16 16 16 16 16 16 15 15 15 15 15 15 15 15 15 15 15 15 15 15 15 15 15 15 15 15 15 15 14 14 14 14 14 14 14 14 14 14 14
18 17 17 17 16 16 16 16 16 16 15 15 15 15 15 15 15 15 15 15 15 15 15 15 15 15 15 15 15 15 15 14 14 14 14 14 14 14 14 14 14 14 14
18 17 17 17 17 16 16 16 16 16 15 15 15 15 15 15 15 15 15 15 15 15 15 15 15 15 15 15 15 15 15 14 14 14 14 14 14 13 14 14 14 14 14
Wind_Speed
2 3 9 11 13 14 14 15 15 15 15 15 15 14 14 13 13 12 12 11 11 10 10 10 10 10 10 9 8 8 8 7 8 7 7 7 7 7 7 7 6 6 7
4 6 11 12 13 14 15 15 14 14 14 14 14 13 13 12 12 11 11 10 10 10 9 9 9 9 9 8 8 7 7 6 6 7 7 6 6 6 6 7 6 5 6
6 8 11 12 13 14 14 14 14 13 13 13 13 12 12 11 11 10 10 10 9 9 9 8 8 8 8 8 7 7 6 6 6 6 6 5 5 5 6 6 6 6 6
7 8 10 11 12 13 13 13 13 13 13 12 12 12 11 10 10 9 9 9 9 8 8 8 7 8 8 7 7 7 6 5 6 6 5 4 3 4 5 5 5 5 5
7 9 10 12 12 12 13 13 13 13 12 12 11 11 10 9 9 9 8 8 8 7 7 7 7 7 8 7 7 6 6 6 6 6 5 4 3 3 4 4 4 4 3
6 9 10 12 12 12 12 12 12 12 11 11 10 9 8 8 8 7 7 7 7 7 6 6 6 7 7 7 6 6 6 7 7 7 5 4 3 3 4 4 3 3 2
7 7 10 12 12 12 12 12 12 11 10 9 8 7 7 7 7 6 6 6 5 5 5 5 5 5 6 6 6 6 7 7 7 6 4 3 2 2 3 3 2 2 2
7 7 9 11 12 12 11 11 10 10 9 8 7 6 6 5 5 5 4 4 4 4 4 4 4 4 4 5 6 6 6 6 6 5 4 2 1 2 2 2 2 2 2
7 7 7 7 9 10 10 9 9 8 8 7 6 5 5 4 4 3 3 4 3 3 3 3 3 4 4 5 5 5 6 6 5 4 3 2 1 1 1 1 1 2 2
6 6 5 6 7 7 7 7 7 7 6 6 5 5 5 5 5 4 4 4 4 4 4 4 4 5 5 5 5 5 5 5 4 3 3 3 2 1 1 1 1 2 3
5 4 4 5 6 6 5 5 6 5 6 6 6 6 6 6 6 5 5 5 4 4 5 5 5 6 6 6 6 6 6 5 4 3 3 3 3 3 2 2 2 2 3
3 2 3 3 4 4 4 5 5 6 6 6 6 6 6 5 5 5 6 6 6 5 5 6 7 7 7 7 7 7 6 5 4 3 4 4 4 4 3 3 3 2 3
3 2 2 2 3 4 4 4 5 5 5 6 6 6 5 5 6 6 6 7 7 7 6 6 7 7 7 6 6 6 5 5 4 4 5 5 5 5 4 3 3 3 3
3 2 2 3 3 3 4 4 4 4 4 4 5 5 5 4 4 4 4 5 5 5 5 6 5 6 6 6 5 5 5 4 4 5 5 5 5 5 4 4 4 3 3
3 2 1 3 3 3 4 3 4 3 3 4 5 5 4 3 3 3 4 4 5 5 5 4 4 5 5 5 5 5 5 5 5 5 5 6 6 6 5 5 5 5 5
5 4 3 3 4 4 3 3 3 3 4 5 5 5 5 4 3 3 3 4 4 5 5 5 4 4 3 4 4 5 4 5 5 5 5 6 7 7 7 5 5 6 6
5 4 4 5 4 5 4 3 3 4 5 4 4 5 5 5 5 4 3 3 4 5 6 6 5 5 4 4 4 4 5 5 5 5 6 7 7 7 7 6 5 5 6
5 5 5 5 5 4 4 3 4 5 5 4 4 5 5 5 5 5 3 3 4 5 5 3 3 4 4 4 4 4 4 5 6 6 7 7 7 7 8 7 6 6 6
6 6 5 5 6 5 4 4 5 5 5 5 5 5 5 5 6 6 4 4 5 5 4 3 4 3 3 4 4 5 5 5 5 6 7 8 8 8 8 8 8 7 7
6 5 6 5 5 5 4 4 4 4 4 5 5 4 4 5 6 6 5 4 5 4 4 4 4 4 3 3 5 5 5 4 5 5 6 7 9 9 9 9 8 8 9
6 6 6 6 5 5 3 3 3 2 2 3 4 5 5 5 5 6 4 4 4 4 3 3 3 5 4 3 3 4 5 5 6 6 6 6 8 9 10 10 9 9 8
7 6 6 6 6 4 3 3 2 2 2 1 3 5 6 5 5 5 4 3 3 3 4 4 3 3 3 4 3 3 3 5 5 6 5 6 6 8 9 10 10 10 9
7 7 7 6 6 5 5 4 3 4 3 3 3 3 4 5 5 5 4 4 3 3 3 3 3 4 3 4 3 3 3 1 2 4 5 6 6 6 6 9 10 10 10
8 7 7 6 6 5 6 5 5 3 2 0 0 1 3 5 5 5 5 5 4 3 3 3 3 3 3 2 3 3 2 3 2 2 4 5 6 7 6 7 9 10 11
7 6 6 6 5 5 5 6 6 4 2 1 2 3 3 4 5 5 5 5 4 3 3 4 4 4 3 2 2 2 3 3 3 3 1 3 4 4 5 6 7 9 11
6 6 6 7 5 5 6 6 6 6 5 4 2 2 2 2 3 5 5 5 4 4 4 4 4 4 4 4 3 2 2 2 1 2 2 1 2 3 4 5 6 8 10
Wind_Direction
161 168 139 128 124 120 117 115 113 111 109 108 107 105 104 104 103 101 100 98 96 94 93 92 91 91 89 86 85 85 86 89 91 89 89 88 88 92 90 87 86 93 99
143 140 135 129 124 121 118 115 113 112 109 108 108 106 105 105 104 102 100 98 96 93 91 90 88 87 86 83 81 79 80 83 85 83 81 79 85 93 94 92 88 94 98
121 123 127 126 122 121 120 118 115 113 110 110 109 107 105 104 103 102 101 99 96 93 90 87 87 84 82 78 76 75 75 76 83 80 75 68 73 89 94 91 89 91 91
123 119 126 126 122 120 120 119 116 113 110 109 108 106 104 103 102 101 101 98 94 89 87 83 83 81 78 74 70 68 69 72 78 77 70 63 60 91 91 86 87 85 87
119 122 130 126 124 123 121 119 116 114 111 108 106 104 102 101 101 99 96 95 92 87 82 78 77 75 73 70 68 67 65 69 71 71 70 67 62 93 94 84 83 83 84
109 119 129 128 127 124 121 119 118 115 112 110 107 105 104 101 97 96 94 91 88 85 78 71 69 68 66 63 63 64 66 70 69 69 67 64 63 95 92 79 78 73 78
108 113 126 125 122 121 118 117 115 112 110 108 105 101 100 97 96 94 88 84 81 77 71 64 59 59 57 57 61 64 65 69 72 68 59 51 54 83 83 69 67 63 58
108 109 118 120 119 118 115 113 110 106 103 100 97 92 89 90 93 92 86 78 71 63 58 55 51 50 52 61 66 68 68 71 67 55 46 32 38 72 74 54 44 45 60
96 95 94 105 111 115 114 112 111 104 98 93 89 83 78 75 70 72 66 64 58 45 41 47 52 54 56 64 68 70 72 74 67 44 30 6 8 49 75 29 30 33 46
82 77 79 82 85 88 93 103 103 97 91 84 76 69 59 48 39 36 31 35 40 39 41 52 58 60 62 65 66 68 71 70 61 36 18 0 2 28 53 22 41 44 48
87 69 69 72 72 74 76 81 78 75 70 65 57 56 53 41 29 19 13 20 27 35 43 52 61 65 65 63 62 62 64 67 57 35 19 15 13 23 35 34 59 56 54
115 91 84 80 74 70 67 61 55 52 50 49 49 50 51 44 28 22 17 22 26 37 44 50 57 60 57 55 52 56 60 61 51 29 21 22 26 30 41 45 60 74 72
143 126 106 100 84 79 64 62 55 51 49 44 44 44 47 40 29 29 28 25 31 38 40 42 50 52 53 51 48 50 55 57 42 25 17 21 25 29 38 44 52 73 75
137 154 123 110 92 83 79 69 67 63 57 47 40 45 52 42 32 29 33 31 39 43 45 47 52 54 53 52 56 56 52 52 44 29 20 24 25 28 38 41 51 65 78
149 162 144 124 112 91 81 69 70 64 66 60 53 51 62 65 48 41 45 49 49 51 53 55 58 57 53 48 52 60 50 45 42 35 20 23 25 24 33 40 55 59 69
164 165 145 124 115 105 93 83 70 71 71 66 55 50 68 80 77 67 56 49 43 49 59 62 63 61 53 51 47 48 46 42 42 38 28 23 23 21 25 38 52 55 57
162 152 147 136 117 110 99 89 82 75 76 64 53 57 67 79 83 80 68 51 42 58 66 64 57 57 55 53 42 39 45 43 42 37 34 29 22 25 31 33 42 46 50
149 149 155 147 130 117 103 88 78 74 72 59 57 63 65 75 83 81 73 55 55 66 64 61 53 56 50 51 44 32 36 40 37 37 38 33 29 28 30 33 40 42 47
157 152 147 133 131 124 109 90 77 69 63 55 56 57 60 70 79 83 73 64 71 67 54 58 54 64 62 54 55 47 37 35 31 39 37 34 32 33 34 35 38 46 45
150 146 144 133 131 123 104 82 64 55 43 46 47 47 64 73 80 82 73 65 71 69 56 55 62 55 61 56 65 54 38 32 38 38 36 34 33 36 40 40 36 39 38
145 148 155 148 144 129 108 100 90 68 30 28 29 39 60 71 77 82 77 64 63 73 73 74 75 62 44 31 65 42 25 32 42 34 32 34 32 34 38 37 35 35 32
162 162 163 161 155 145 128 117 113 110 75 40 16 31 41 61 73 85 81 73 68 77 67 62 72 79 43 31 81 79 33 12 14 21 24 34 30 32 33 33 31 30 28
173 173 171 168 158 146 131 111 87 66 47 33 18 11 12 47 69 78 83 83 75 79 81 66 69 90 84 37 48 109 113 121 349 1 21 28 25 31 25 27 32 31 30
184 173 164 160 156 151 144 138 135 131 123 113 351 11 17 43 60 72 79 82 79 77 82 71 69 78 102 78 47 49 89 136 115 24 2 12 24 31 24 27 26 27 28
178 168 164 155 155 154 152 147 139 132 131 99 60 56 35 30 43 60 72 80 77 74 78 75 72 72 81 99 91 75 67 58 68 111 41 351 7 10 16 21 26 26 25
166 160 158 156 155 151 149 147 146 144 138 122 103 83 45 30 28 43 65 71 73 74 76 80 80 80 80 86 84 82 99 97 88 102 113 19 0 343 360 16 23 18 20
Height
1522 1524 1525 1526 1528 1529 1530 1532 1533 1533 1535 1535 1536 1537 1537 1538 1539 1539 1539 1540 1540 1541 1541 1542 1542 1542 1543 1543 1544 1544 1545 1545 1546 1547 1547 1547 1548 1548 1549 1549 1549 1549 1549
1523 1524 1526 1528 1529 1530 1532 1532 1534 1535 1535 1536 1537 1537 1538 1539 1539 1540 1540 1541 1541 1542 1542 1542 1543 1543 1544 1544 1545 1545 1546 1546 1547 1547 1548 1548 1549 1549 1549 1550 1550 1550 1550
1524 1525 1527 1529 1530 1532 1533 1533 1534 1535 1536 1537 1537 1538 1539 1540 1540 1541 1541 1542 1542 1542 1543 1543 1544 1544 1544 1545 1545 1546 1547 1547 1547 1548 1548 1549 1550 1550 1550 1550 1551 1551 1551
1525 1527 1528 1530 1531 1532 1534 1535 1535 1536 1537 1538 1538 1539 1540 1540 1541 1542 1542 1542 1543 1543 1544 1544 1544 1545 1545 1546 1546 1547 1547 1548 1548 1549 1549 1550 1550 1551 1551 1551 1551 1551 1551
1527 1528 1530 1531 1532 1533 1535 1536 1537 1537 1538 1539 1539 1540 1541 1541 1542 1542 1543 1543 1543 1544 1544 1545 1545 1545 1546 1546 1547 1547 1548 1548 1549 1550 1550 1551 1551 1551 1551 1552 1552 1552 1552
1528 1530 1531 1532 1533 1535 1536 1537 1538 1539 1539 1540 1541 1541 1542 1542 1543 1543 1544 1544 1544 1545 1545 1545 1546 1546 1546 1547 1547 1548 1549 1549 1550 1550 1551 1551 1551 1552 1552 1552 1552 1552 1552
1530 1531 1533 1534 1535 1536 1537 1538 1539 1540 1541 1542 1542 1543 1543 1544 1544 1544 1544 1545 1545 1545 1545 1546 1546 1547 1547 1547 1548 1549 1549 1550 1550 1551 1551 1552 1552 1552 1552 1552 1552 1552 1552
1532 1533 1535 1536 1537 1538 1539 1540 1541 1542 1543 1543 1544 1544 1544 1545 1545 1545 1545 1545 1546 1546 1546 1546 1547 1547 1548 1548 1549 1549 1550 1550 1551 1551 1552 1552 1552 1552 1552 1552 1552 1552 1551
1534 1535 1537 1538 1539 1540 1541 1542 1543 1543 1544 1545 1545 1546 1546 1546 1546 1546 1546 1546 1547 1547 1547 1547 1548 1548 1548 1549 1549 1550 1550 1551 1551 1552 1552 1552 1552 1552 1552 1552 1551 1551 1551
1536 1537 1539 1540 1541 1542 1543 1544 1545 1545 1545 1546 1547 1547 1547 1547 1547 1547 1548 1548 1548 1548 1548 1548 1549 1549 1549 1550 1550 1550 1551 1551 1552 1552 1553 1553 1552 1552 1552 1552 1551 1551 1550
1538 1540 1541 1542 1543 1544 1545 1546 1546 1546 1547 1548 1548 1548 1548 1548 1549 1549 1549 1549 1549 1549 1549 1549 1550 1550 1550 1551 1551 1551 1551 1552 1552 1553 1553 1553 1553 1553 1552 1552 1552 1551 1550
1540 1542 1543 1544 1545 1546 1547 1547 1548 1548 1549 1549 1550 1550 1550 1550 1550 1550 1550 1550 1550 1550 1550 1550 1551 1551 1551 1552 1552 1552 1552 1553 1553 1553 1553 1553 1553 1553 1552 1552 1552 1551 1551
1541 1543 1545 1546 1547 1548 1549 1549 1550 1550 1551 1551 1551 1551 1551 1551 1551 1551 1551 1551 1551 1551 1551 1551 1552 1552 1552 1552 1553 1553 1553 1553 1553 1554 1554 1553 1553 1553 1552 1552 1552 1552 1551
1543 1544 1546 1547 1549 1549 1550 1551 1551 1552 1552 1553 1553 1553 1553 1553 1552 1552 1552 1552 1552 1552 1552 1552 1552 1553 1553 1553 1554 1554 1554 1554 1554 1554 1554 1554 1554 1553 1553 1552 1552 1552 1552
1544 1546 1547 1549 1550 1551 1551 1552 1553 1553 1554 1554 1554 1554 1554 1554 1554 1553 1553 1553 1553 1553 1553 1553 1553 1553 1553 1554 1554 1554 1555 1555 1555 1555 1555 1555 1554 1553 1553 1553 1552 1552 1552
1544 1546 1548 1549 1551 1552 1552 1553 1554 1555 1555 1556 1556 1556 1555 1555 1555 1555 1554 1554 1554 1554 1554 1554 1554 1554 1554 1554 1555 1555 1555 1555 1555 1555 1555 1555 1554 1554 1553 1553 1553 1553 1553
1545 1547 1549 1550 1551 1552 1553 1554 1555 1556 1556 1557 1557 1557 1557 1556 1556 1556 1555 1555 1555 1555 1555 1554 1554 1554 1554 1555 1555 1555 1556 1556 1556 1556 1556 1556 1555 1555 1554 1554 1554 1554 1554
1546 1548 1549 1551 1552 1553 1554 1555 1556 1556 1557 1558 1558 1558 1558 1557 1557 1557 1556 1556 1556 1556 1555 1555 1555 1555 1555 1555 1556 1556 1556 1557 1557 1557 1557 1556 1556 1555 1555 1554 1555 1554 1554
1547 1548 1550 1551 1553 1554 1555 1556 1557 1557 1558 1558 1558 1558 1558 1558 1558 1557 1557 1557 1556 1556 1556 1556 1556 1556 1556 1556 1557 1557 1557 1558 1558 1558 1558 1557 1557 1556 1555 1555 1555 1555 1555
1547 1549 1550 1552 1553 1555 1556 1557 1557 1558 1558 1559 1559 1559 1559 1559 1558 1558 1558 1557 1557 1557 1557 1557 1557 1557 1557 1557 1558 1558 1558 1559 1559 1559 1559 1558 1558 1557 1556 1556 1555 1555 1555
1547 1549 1551 1552 1553 1555 1556 1557 1558 1558 1559 1560 1560 1560 1560 1560 1559 1559 1559 1558 1558 1558 1558 1558 1558 1558 1558 1559 1559 1559 1560 1560 1560 1560 1560 1560 1559 1558 1558 1557 1556 1556 1556
1547 1548 1550 1552 1553 1555 1556 1557 1558 1559 1560 1560 1561 1561 1561 1561 1560 1560 1560 1559 1559 1559 1559 1559 1559 1559 1559 1560 1560 1560 1561 1563 1562 1562 1561 1561 1560 1559 1559 1558 1558 1557 1557
1546 1548 1550 1552 1554 1555 1557 1558 1559 1560 1561 1561 1562 1562 1562 1562 1561 1561 1561 1560 1560 1560 1560 1560 1561 1561 1561 1561 1561 1562 1562 1562 1562 1563 1562 1562 1561 1561 1560 1560 1559 1558 1558
1545 1547 1550 1552 1554 1555 1557 1558 1559 1560 1561 1562 1562 1562 1562 1562 1562 1562 1562 1562 1561 1561 1561 1561 1562 1562 1562 1562 1562 1563 1563 1563 1563 1563 1564 1563 1563 1562 1561 1561 1560 1559 1558
1544 1546 1549 1551 1553 1555 1557 1558 1559 1560 1561 1562 1563 1563 1563 1563 1563 1563 1563 1563 1562 1562 1562 1562 1563 1563 1563 1563 1563 1563 1563 1563 1563 1563 1564 1564 1564 1563 1562 1562 1561 1560 1559
1542 1545 1548 1550 1553 1555 1556 1558 1559 1560 1561 1562 1563 1563 1563 1564 1564 1564 1564 1564 1564 1564 1564 1564 1564 1564 1564 1564 1564 1564 1564 1564 1564 1563 1563 1564 1564 1564 1563 1562 1561 1560 1559